Weather History for Capo Mele, Italy

Change the Weather History Date:

Friday, February 14, 2014

  Actual Average Record
Temperature  
Mean Temperature 54 °F -  
Max Temperature 59 °F 54 °F 60 °F (2001)
Min Temperature 48 °F 44 °F 37 °F (1999)
Degree Days  
Heating Degree Days 12    
Growing Degree Days 4 (Base 50)    
Moisture  
Dew Point 41 °F    
Average Humidity 63    
Maximum Humidity 94    
Minimum Humidity 19    
Precipitation  
Precipitation 0.00 in 0.09 in - ()
Sea Level Pressure  
Sea Level Pressure 29.87 in    
Wind  
Wind Speed 7 mph ()    
Max Wind Speed 14 mph    
Max Gust Speed -    
Visibility 12.0 miles    
Events      
Averages and records for this station are not official NWS values.
T = Trace of Precipitation, MM = Missing Value Source: Averaged Metar Reports

Daily Weather History Graph

Daily Weather History Graph

Search for Another Location

Airport:

Trip Planner

Search our weather history database for the weather conditions in past years. The results will help you decide how hot, cold, wet, or windy it might be!

Date:

Astronomy

Feb. 14, 2014 Rise Set
Actual Time 7:28 AM CET 5:55 PM CET
Civil Twilight 6:58 AM CET 6:25 PM CET
Nautical Twilight 6:24 AM CET 6:58 PM CET
Astronomical Twilight 5:51 AM CET 7:32 PM CET
Moon 5:45 PM CET (2/14) 6:45 AM CET (2/14)
Length of Visible Light 11h 26m
Length of Day
10h 27m
Full, 100% of the Moon is Illuminated
Feb 14
Full
Feb 15
Full
Feb 22
Last Quarter
Mar 1
New
Mar 8
First Quarter

Hourly Weather History & Observations

Time (CET) Temp. Dew Point Humidity Pressure Visibility Wind Dir Wind Speed Gust Speed Precip Events Conditions
12:00 AM 52 °F 46 °F 72% 29.68 in 12 mi NW 5.8 mph - -   Scattered Clouds
12:55 AM 50.0 °F 48.2 °F 94% 29.68 in - North 12.7 mph - N/A   Clear
1:00 AM 50 °F 48 °F 91% 29.72 in 12 mi North 12.7 mph - -   Scattered Clouds
1:55 AM 50.0 °F 46.4 °F 87% 29.71 in - NNE 8.1 mph - N/A   Clear
2:00 AM 50 °F 47 °F 85% 29.73 in 12 mi NNE 8.1 mph - -   Partly Cloudy
2:55 AM 48.2 °F 44.6 °F 87% 29.74 in - North 8.1 mph - N/A   Clear
3:00 AM 49 °F 45 °F 83% 29.76 in 12 mi North 8.1 mph - -   Partly Cloudy
3:55 AM 50.0 °F 46.4 °F 87% 29.74 in - North 13.8 mph - N/A   Clear
4:00 AM 49 °F 46 °F 83% 29.77 in 12 mi North 13.8 mph - -  
4:55 AM 48.2 °F 42.8 °F 82% 29.77 in - North 8.1 mph - N/A   Clear
5:00 AM 49 °F 43 °F 72% 29.79 in 12 mi North 8.1 mph - -  
5:55 AM 50.0 °F 41.0 °F 71% 29.80 in - NNE 6.9 mph - N/A   Clear
6:00 AM 50 °F 41 °F 61% 29.84 in 12 mi NNE 6.9 mph - -  
6:55 AM 50.0 °F 39.2 °F 66% 29.80 in - North 9.2 mph - N/A   Clear
7:00 AM 49 °F 39 °F 58% 29.84 in 31 mi North 9.2 mph - -  
7:55 AM 50.0 °F 37.4 °F 62% 29.83 in - East 6.9 mph - N/A   Clear
8:00 AM 51 °F 37 °F 49% 29.85 in 31 mi East 6.9 mph - -  
8:55 AM 53.6 °F 44.6 °F 72% 29.86 in - ENE 5.8 mph - N/A   Clear
9:00 AM 54 °F 44 °F 60% 29.87 in 31 mi ENE 5.8 mph - -  
9:55 AM 55.4 °F 39.2 °F 54% 29.86 in - NNE 4.6 mph - N/A   Clear
10:00 AM 56 °F 40 °F 43% 29.88 in 31 mi NNE 4.6 mph - -  
10:55 AM 57.2 °F 30.2 °F 36% 29.89 in - North 6.9 mph - N/A   Clear
11:00 AM 58 °F 30 °F 22% 29.89 in 31 mi North 6.9 mph - -  
11:55 AM 59.0 °F 28.4 °F 31% 29.89 in - NNE 6.9 mph - N/A   Clear
12:00 PM 59 °F 28 °F 19% 29.90 in 31 mi NNE 6.9 mph - -   Scattered Clouds
12:55 PM 59.0 °F 33.8 °F 39% 29.92 in - NNE 9.2 mph - N/A   Clear
1:00 PM 59 °F 34 °F 27% 29.92 in 31 mi NNE 9.2 mph - -   Scattered Clouds
1:55 PM 57.2 °F 42.8 °F 59% 29.89 in - NNE 8.1 mph - N/A   Clear
2:00 PM 58 °F 42 °F 45% 29.91 in 31 mi NNE 8.1 mph - -   Scattered Clouds
2:55 PM 57.2 °F 41.0 °F 55% 29.89 in - North 5.8 mph - N/A   Clear
3:00 PM 57 °F 41 °F 43% 29.91 in 31 mi North 5.8 mph - -   Scattered Clouds
3:55 PM 57.2 °F 39.2 °F 51% 29.92 in - ENE 2.3 mph - N/A   Clear
4:00 PM 58 °F 40 °F 39% 29.92 in 31 mi ENE 2.3 mph - -   Scattered Clouds
4:55 PM 55.4 °F 39.2 °F 54% 29.92 in - South 4.6 mph - N/A   Clear
5:00 PM 55 °F 40 °F 46% 29.92 in 31 mi South 4.6 mph - -   Partly Cloudy
5:55 PM 51.8 °F 42.8 °F 71% 29.92 in - SSE 3.5 mph - N/A   Clear
6:00 PM 53 °F 42 °F 57% 29.95 in 31 mi SSE 3.5 mph - -   Partly Cloudy
6:55 PM 51.8 °F 42.8 °F 71% 29.95 in - North 5.8 mph - N/A   Clear
7:00 PM 51 °F 44 °F 68% 29.96 in 31 mi North 5.8 mph - -   Partly Cloudy
7:55 PM 50.0 °F 42.8 °F 76% 29.95 in - North 4.6 mph - N/A   Clear
8:00 PM 51 °F 43 °F 65% 29.97 in 31 mi North 4.6 mph - -   Scattered Clouds
8:55 PM 50.0 °F 44.6 °F 82% 29.98 in - North 5.8 mph - N/A   Clear
9:00 PM 51 °F 44 °F 70% 29.99 in 31 mi North 5.8 mph - -   Clear
9:55 PM 50.0 °F 44.6 °F 82% 29.98 in - North 10.4 mph - N/A   Clear
10:00 PM 51 °F 45 °F 73% 29.99 in 31 mi North 10.4 mph - -   Clear
10:55 PM 50.0 °F 44.6 °F 82% 29.98 in - North 9.2 mph - N/A   Clear
11:00 PM 51 °F 44 °F 68% 30.00 in 31 mi North 9.2 mph - -   Clear
11:55 PM 50.0 °F 42.8 °F 76% 29.98 in - North 6.9 mph - N/A   Clear